BREEZE-M R/B

基本信息
目录编号:
37807
目录名称:
BREEZE-M R/B
国际标识:
2011-048B
轨道中心:
EARTH
物体状态:
在轨
发射日期:
2011-09-20 UTC
国别:
俄罗斯(独联体) (CIS)
轨道信息
数据来源: 国际轨道数据
星历时间: 2026-07-14T01:05:12+0800
半长轴: 41081.329km
偏心率: 0.0228836
轨道倾角: 10.109°
近地点辐角: 85.553°
升交点赤经: 42.618°
平近点角: 99.412°
近地点: 33763.103km
远地点: 35643.281km
周期: 1381.104分钟
每日圈数: 1.042644
详细信息
发射场:
TTMTR
轨道高度:
MEO
数据来源:
AOE Integration Group
参考系:
TEME
时间系统:
UTC
历元类型:
SGP4
2D轨道图
3D轨道图
轨道高度分析图
轨道倾角分析图
轨道综合分析图
查看轨道综合分析图